{"data":{"norad_id":61241,"epoch":"2026-09-22T23:44:51.088416Z","epoch_age_seconds":79511,"freshness":"FRESH","line1":"1 61241U 24174D   26265.98948019  .00005534  00000+0  18786-3 0  9990","line2":"2 61241  97.4390 277.5967 0009816 237.3015 122.7280 15.30876657110873","mean_motion":15.30876657,"eccentricity":0.0009816,"inclination_deg":97.439,"raan_deg":277.5967,"arg_perigee_deg":237.3015,"mean_anomaly_deg":122.728,"bstar":0.00018786,"rev_number":11087,"period_min":94.063750558579,"perigee_km":466.4701698834,"apogee_km":479.9207057253,"semimajor_km":6851.3324378043,"source":"CELESTRAK","updated_at":"2026-09-23T09:00:20.857567Z"}}